Weather Roundup
Issued by NWS

Home | Current Version | Previous Version | Graphics & Text | Print | Product List | Glossary Off
Versions: 1 2 3 4 5 6 7 8 9 10 11 12 13 14 15 16 17 18 19 20 21 22 23 24 25 26 27 28 29 30 31 32 33 34 35 36 37 38 39 40 41 42 43 44 45 46 47 48 49 50

165
NZUS93 KARX 271059
HRRWXR

CURRENT HOURLY OBSERVATIONS ACROSS
MUCH OF THE UPPER MISSISSIPPI VALLEY
NATIONAL WEATHER SERVICE LA CROSSE WI
600 AM CDT TUE SEP 27 2016


...SOUTHEAST MINNESOTA...


CITY           SKY/WX    TMP DP  RH WIND       PRES   REMARKS
ROCHESTER      CLEAR     45  38  76 W12       29.85F
ROCHESTER/MAYO FAIR      47  37  68 W16       29.84S
WINONA         CLEAR     52  37  58 W12G21    29.80S
AUSTIN           N/A     46  37  71 W9        29.88S
ALBERT LEA     CLEAR     46  37  71 W6        29.90S
DODGE CENTER   CLEAR     43  37  81 W10       29.86S
PRESTON        CLEAR     44  36  73 W12       29.85F
OWATONNA       CLEAR     43  37  81 W8        29.88S
FARIBAULT      CLEAR     48  39  71 W8        29.87F
$$

...ELSEWHERE IN MINNESOTA...


CITY           SKY/WX    TMP DP  RH WIND       PRES   REMARKS
MINNEAPOLIS    CLEAR     50  38  63 W13       29.83F
INTNL FALLS    CLOUDY    47  45  93 NW12      29.70S
DULUTH         CLOUDY    50  45  83 NW20G26   29.67S
RED WING       CLEAR     48  37  66 W10       29.80S
REDWOOD FALLS  CLEAR     44  37  76 W9        29.94R
MANKATO        CLEAR     47  38  71 W10       29.91S
WORTHINGTON    CLEAR     42  36  79 W10       29.98S
FAIRMONT       CLEAR     44  38  79 W7        29.94S
$$

...SOUTHWEST WISCONSIN...


CITY           SKY/WX    TMP DP  RH WIND       PRES   REMARKS
LA CROSSE      CLEAR     53  39  59 W13       29.80S
PRAIRIE DU CHI CLEAR     50  35  56 W12       29.85F
BOSCOBEL       CLEAR     50  39  66 S6        29.84F
LONE ROCK      NOT AVBL
PLATTEVILLE    CLEAR     47  39  73 SW8       29.86S
FORT MC COY    CLEAR     49  40  70 W8        29.78F
MAUSTON-NEW LI SUNNY     50  40  68 W9        29.76S
VIROQUA        FAIR      47  37  65 W8        29.80F
WIS DELLS      NOT AVBL
$$

...ELSEWHERE IN WISCONSIN...


CITY           SKY/WX    TMP DP  RH WIND       PRES   REMARKS
MILWAUKEE      CLEAR     53  38  56 W12       29.77F
MADISON        PTCLDY    52  37  56 VRB6      29.78F
GREEN BAY      CLOUDY    53  43  68 W13G20    29.66F
EAU CLAIRE     NOT AVBL
BLACK RVR FLS  FAIR      49  39  67 W8        29.76F
MEDFORD        CLOUDY    49  42  77 W13G20    29.69S
WAUSAU         CLOUDY    51  42  71 W15G22    29.66F
WIS RAPIDS     CLOUDY    50  42  74 W10       29.73F
MARSHFIELD     CLOUDY    51  41  68 W13       29.70F
RICE LAKE      NOT AVBL
$$

...NORTHEAST IOWA...


CITY           SKY/WX    TMP DP  RH WIND       PRES   REMARKS
WATERLOO       CLEAR     47  38  71 W8        29.91S
DUBUQUE        CLEAR     46  39  76 W10       29.88S
DECORAH        CLEAR     45  37  76 W5        29.86S
MASON CITY     CLEAR     44  37  76 W12       29.93S
CHARLES CITY   CLEAR     45  39  81 W7        29.90S
OELWEIN        CLEAR     43  39  87 W8        29.90F
$$

...ELSEWHERE IN IOWA...


CITY           SKY/WX    TMP DP  RH WIND       PRES   REMARKS
DES MOINES     CLEAR     51  44  77 W6        29.98F
IOWA CITY      CLEAR     46  42  86 W6        29.95S
FORT DODGE     CLEAR     46  36  66 W3        29.97S
MARSHALLTOWN   CLEAR     46  40  79 W5        29.94S
CEDAR RAPIDS   CLEAR     45  42  89 SW8       29.92S
$$

...NORTHERN ILLINOIS...


CITY           SKY/WX    TMP DP  RH WIND       PRES   REMARKS
CHICAGO-OHARE  CLEAR     52  40  63 W14       29.84S
CHICAGO-MIDWAY CLEAR     54  40  59 W10       29.85F
MOLINE         CLEAR     50  42  74 W5        29.92S
ROCKFORD       CLEAR     50  40  68 SW8       29.87F
PEORIA         CLEAR     52  46  80 W7        29.94F
$$

NOTE: "FAIR" INDICATES FEW OR NO CLOUDS BELOW 12,000 FEET WITH NO
SIGNIFICANT WEATHER AND/OR OBSTRUCTIONS TO VISIBILITY. WIND
SPEEDS ARE IN MILES-PER-HOUR.




USA.gov is the U.S. government's official web portal to all federal, state and local government web resources and services.